Dewpoint
46 45 46 44 47 45 43 41 34 45 47 35 36 33 35 36 33 33 34 32 31 28 31 28 29 29 33 36 35 32 32 31 31 31 33 35 34 30 25 26 21 22 21 20
45 45 43 44 46 44 44 38 37 46 45 32 34 35 35 35 32 33 33 33 32 32 31 29 32 33 36 35 34 33 30 30 29 27 29 31 31 30 28 26 28 26 21 21
45 45 45 44 46 44 44 37 32 38 40 38 32 34 34 33 34 34 34 32 32 32 32 33 32 33 35 36 36 37 32 28 26 24 26 31 31 31 29 29 30 21 22 24
47 46 46 47 46 45 44 39 34 38 33 35 35 35 35 29 31 34 32 31 31 31 31 32 32 34 33 34 35 33 31 32 30 28 28 30 29 31 29 31 26 26 23 24
48 48 49 50 50 47 43 36 37 37 36 36 35 36 34 29 32 33 31 31 32 31 29 29 31 33 32 31 32 32 31 32 28 26 26 26 28 29 31 30 28 28 27 27
48 50 50 51 51 47 42 42 39 36 37 35 34 31 30 30 34 33 33 32 31 31 32 33 34 34 33 33 31 30 30 30 30 27 25 24 22 25 28 30 31 29 25 29
49 50 51 49 47 47 45 43 39 35 34 34 30 31 30 32 33 32 33 33 32 34 35 33 33 33 33 33 33 31 29 29 30 29 24 20 23 26 27 27 28 30 30 31
51 51 51 49 46 45 46 43 37 34 32 34 33 32 31 33 34 34 35 36 36 35 32 31 29 29 29 30 33 32 31 29 28 26 23 21 23 26 25 25 26 32 30 29
52 52 52 49 45 41 41 38 38 35 31 29 29 32 34 32 33 34 36 38 38 34 32 29 26 24 26 27 31 33 29 28 27 27 22 17 22 25 27 26 20 32 32 31
52 52 50 48 45 41 38 36 37 34 30 30 31 32 32 33 33 34 36 35 35 34 30 28 26 24 26 25 26 27 27 27 26 24 24 21 25 27 25 19 21 34 34 34
50 50 49 46 43 41 38 34 36 34 31 30 31 31 32 33 34 33 35 34 33 34 31 28 26 24 26 25 26 26 24 25 25 25 24 20 28 27 22 24 33 33 33 33
48 48 47 46 44 41 38 34 34 34 33 31 31 31 32 32 32 35 33 33 34 35 33 30 29 25 26 26 21 28 25 25 24 26 22 26 29 28 30 32 33 34 34 34
48 48 48 47 44 40 38 34 34 34 31 30 30 30 31 32 32 33 33 34 33 33 34 34 32 27 26 23 24 27 28 28 26 26 27 28 29 31 32 33 34 34 35 35
48 46 45 46 44 41 37 36 36 34 32 32 29 31 31 32 33 34 34 34 34 34 34 33 33 29 29 26 25 26 27 28 27 27 27 29 30 31 31 32 34 34 35 35
48 48 47 45 43 40 38 37 36 34 32 30 29 29 31 32 32 33 34 34 33 34 33 32 30 32 30 29 29 27 27 27 25 23 27 26 28 31 32 33 34 34 35 35
48 47 47 45 42 38 37 32 36 37 34 34 30 30 30 31 31 30 30 31 30 32 33 31 30 28 30 28 26 27 28 29 29 26 29 30 31 31 33 33 35 35 35 35
48 46 44 44 42 41 35 31 34 39 35 31 28 29 29 31 30 31 30 30 30 30 31 29 29 29 31 29 26 23 26 29 29 30 31 31 32 32 33 34 34 36 34 34
46 45 44 43 42 40 36 38 41 37 32 31 26 26 27 30 28 28 31 28 29 29 29 28 27 28 27 25 26 25 25 30 29 30 30 30 32 33 34 34 34 33 32 33
46 44 40 38 35 32 34 39 39 38 34 29 27 27 25 31 29 30 30 29 27 29 26 27 27 25 25 26 24 24 26 29 29 31 31 32 32 33 33 33 33 32 32 32
43 38 32 32 35 40 38 37 34 34 34 32 27 27 26 29 28 28 28 28 25 26 24 28 25 24 25 24 23 22 26 29 31 31 31 32 32 33 32 33 33 32 32 32
37 34 33 36 38 36 32 30 29 29 30 30 28 29 27 31 27 26 28 27 27 24 24 24 24 22 24 25 23 23 26 30 32 31 32 32 32 32 32 33 32 32 32 31
37 37 37 36 33 30 28 26 26 27 26 28 27 28 30 30 30 27 28 26 25 22 26 24 21 23 23 25 25 24 27 30 31 31 31 32 32 32 32 32 33 33 32 31
39 36 34 34 32 25 23 20 24 24 28 29 29 29 30 29 30 28 25 24 23 26 24 19 22 21 23 26 25 25 27 31 32 32 32 32 32 33 33 33 33 32 31 31
36 33 28 28 25 25 26 26 30 30 30 29 30 30 29 28 28 26 23 23 24 22 19 20 19 23 23 26 26 26 28 31 32 32 32 32 33 33 33 33 33 32 32 32
33 32 28 27 28 27 27 28 29 31 31 30 29 29 27 27 25 24 24 22 20 19 19 23 26 23 27 27 27 27 28 30 31 30 31 32 32 31 31 31 30 30 29 28
32 31 27 24 25 26 29 29 30 32 31 30 29 26 24 24 24 23 21 18 17 23 28 29 25 26 27 27 28 28 29 30 30 32 32 31 30 30 30 29 28 28 28 28
31 28 27 26 25 27 28 29 30 31 29 29 26 22 21 24 22 21 22 21 27 28 26 26 26 28 27 28 29 30 30 31 30 29 30 30 29 28 29 29 29 28 27 26
Lifted_Index
2 2 1 1 1 2 3 4 5 7 7 7 6 6 5 5 4 4 3 3 3 3 3 2 2 1 1 1 1 1 1 1 1 1 1 2 2 2 2 2 2 2 2 2
2 2 2 2 2 3 5 6 7 7 7 7 6 6 5 5 4 4 3 3 3 3 2 2 2 2 1 1 1 2 2 1 1 1 2 2 2 2 2 2 2 2 2 2
3 3 4 4 4 6 8 8 8 8 8 7 6 5 5 5 4 3 3 3 3 3 2 2 2 2 2 2 2 2 2 2 2 2 2 2 2 2 2 2 2 3 3 3
4 4 5 6 7 9 10 10 9 8 7 7 6 6 5 5 5 4 3 3 3 2 2 2 2 2 2 2 2 2 2 3 3 3 3 3 3 3 3 3 3 3 3 3
6 6 7 8 9 10 10 9 8 7 7 6 6 6 6 6 6 4 3 3 3 3 2 2 2 2 2 2 2 3 3 3 3 3 3 3 3 3 3 3 3 3 3 4
8 8 9 9 9 10 10 9 8 7 6 6 6 6 7 7 7 5 4 3 3 3 3 3 3 3 3 3 3 3 3 3 3 3 3 3 3 3 4 4 4 4 4 4
9 9 9 9 9 9 9 9 8 6 5 5 6 7 9 9 8 7 6 4 4 3 3 3 3 3 3 3 3 3 3 3 3 3 3 2 3 4 4 4 4 4 4 4
8 8 8 9 9 9 9 8 7 6 6 7 8 9 10 10 10 9 7 6 5 5 4 4 4 4 4 4 4 4 4 4 4 3 2 3 3 4 4 4 4 4 4 5
8 8 8 9 9 9 8 8 8 8 9 9 10 10 11 11 10 10 9 8 7 7 6 6 6 5 5 6 6 6 5 5 5 4 4 4 5 5 5 5 5 5 5 5
8 8 9 9 9 9 9 9 9 10 10 11 12 12 11 11 11 10 9 9 9 8 8 8 8 8 8 8 8 8 7 7 7 6 5 5 6 7 7 6 6 6 7 7
10 10 10 9 9 9 9 10 10 11 11 12 12 12 12 11 11 10 10 9 9 9 9 9 9 9 9 9 9 8 8 8 8 7 7 7 8 8 8 8 8 8 8 8
11 11 10 10 10 9 10 10 11 11 11 12 12 12 12 11 11 10 10 9 9 9 9 9 10 10 10 9 8 9 9 8 8 8 8 8 9 9 9 9 9 8 8 8
12 12 11 11 11 11 11 11 12 12 11 11 12 12 12 12 11 11 10 10 10 9 9 10 10 10 10 9 8 9 9 9 9 9 9 9 9 9 9 9 9 8 8 8
13 12 12 12 12 13 13 13 13 13 12 12 12 12 12 12 12 11 11 10 10 10 10 10 10 11 10 10 9 9 10 9 9 9 9 9 9 9 9 9 9 8 9 9
12 13 13 12 12 14 15 15 15 14 14 13 12 12 12 12 12 11 11 11 11 11 11 11 11 11 11 10 10 9 10 10 9 9 9 9 9 9 9 9 9 9 9 9
12 12 13 13 13 14 15 15 16 16 15 14 13 12 13 13 12 12 11 11 11 11 11 11 11 11 11 10 9 10 10 10 10 10 10 10 10 10 9 9 9 9 10 10
12 12 12 13 13 14 14 15 17 17 16 15 13 13 13 13 13 12 12 12 12 12 12 12 12 12 11 10 9 10 11 11 11 11 10 10 10 10 10 10 10 10 11 11
11 12 13 13 13 14 14 16 17 17 17 15 13 12 13 14 13 13 13 13 13 13 13 12 12 12 11 9 9 10 11 11 11 11 11 11 11 11 11 11 11 11 12 12
12 12 13 14 14 14 15 16 17 17 16 15 13 12 13 14 14 13 14 13 13 13 12 12 12 10 9 9 10 10 11 11 12 12 11 11 11 12 12 12 12 12 12 12
12 12 12 13 14 15 15 15 15 15 15 14 13 13 13 14 14 13 13 13 12 11 11 12 10 9 9 10 10 11 11 12 12 12 12 12 12 12 12 12 12 13 13 13
12 12 12 13 14 14 13 13 13 13 13 13 13 12 13 14 13 13 13 13 11 10 11 10 8 7 8 10 10 11 12 13 13 12 12 12 13 13 13 13 13 13 14 14
12 11 11 11 11 11 11 11 11 11 11 11 11 11 12 13 13 13 12 12 11 10 10 9 7 7 8 9 10 11 12 13 13 13 13 13 13 13 13 13 14 14 15 15
11 10 8 8 8 8 9 9 9 10 10 10 10 10 12 13 13 12 11 11 11 10 9 7 6 7 9 9 10 11 12 13 13 13 13 13 13 14 14 14 15 15 15 15
10 8 6 6 6 7 8 8 9 9 10 10 10 10 11 12 12 11 11 10 10 9 7 6 7 8 9 9 10 11 12 13 13 13 14 14 14 14 15 15 15 15 15 15
9 8 6 6 6 6 7 8 8 9 10 10 10 10 11 11 11 11 10 9 8 7 6 6 7 8 9 10 10 11 12 13 13 14 14 14 14 15 15 16 16 16 15 15
10 9 7 6 6 6 6 7 7 8 9 10 10 10 10 10 10 10 9 9 8 7 7 7 8 9 9 10 11 12 13 13 14 14 14 14 15 15 16 16 16 16 16 16
11 10 8 6 6 5 5 5 6 8 9 9 10 10 10 10 10 9 9 8 7 7 7 8 8 9 10 11 12 13 13 13 14 14 14 15 15 16 16 16 16 17 17 16